Voltar ao catálogo

STARLINK-31006

AtivoComunicaçõesVLEO
NORAD 59024·PAYLOAD·🇺🇸 United States

Lançado Feb 25, 2024 de Cape Canaveral Space Force Station

Loading…

Próximas Passagens (próximas 24 horas)

TLE

AtualizadoSource: CelesTrak SupGP

Época: Sep 14, 2026, 21:26 UTC

1 59024C 24038B   26257.89354167 -.00003878  00000+0 -14053-3 0  2572
2 59024  43.0014 348.0884 0001533 279.8701 200.1141 15.27566973    16

Acompanhe STARLINK-31006 em tempo real com AllMySat

Download on the App Store